• In Moldova, Republic
  • List of Countries
  • For 7 days
  • Water Temperature
  • Satellite Maps
  • Weather Map
  • Weather Widgets
  • user-avatar
    Login

    Hourly Weather Kitzbuhel

    Today, 25 May, Thursday

    Time Temperature Precipitation Wind Pressure Humidity
    00:00 +8°C° 1.7 mm 2 mps 679 mmHg 98%
    01:00 +8°C° 0 mm 2 mps 679 mmHg 98%
    02:00 +7°C° 0.3 mm 2 mps 679 mmHg 98%
    03:00 +6°C° 0.3 mm 2 mps 679 mmHg 98%
    04:00 +7°C° 0.3 mm 1 mps 679 mmHg 98%
    05:00 +8°C° 0 mm 1 mps 679 mmHg 95%
    06:00 +9°C° 0 mm 1 mps 679 mmHg 93%
    07:00 +10°C° 0 mm 1 mps 680 mmHg 92%
    08:00 +11°C° 0.1 mm 1 mps 680 mmHg 85%
    09:00 +12°C° 0.1 mm 1 mps 680 mmHg 79%
    10:00 +13°C° 0.1 mm 1 mps 680 mmHg 72%
    11:00 +14°C° 0.1 mm 2 mps 680 mmHg 70%
    12:00 +15°C° 0.1 mm 2 mps 680 mmHg 69%
    13:00 +15°C° 0.1 mm 2 mps 680 mmHg 67%
    14:00 +15°C° 0.1 mm 2 mps 680 mmHg 68%
    15:00 +15°C° 0.1 mm 2 mps 680 mmHg 70%
    16:00 +15°C° 0.1 mm 2 mps 679 mmHg 71%
    17:00 +14°C° 0.1 mm 2 mps 679 mmHg 78%
    18:00 +13°C° 0.1 mm 2 mps 679 mmHg 84%
    19:00 +12°C° 0.1 mm 1 mps 679 mmHg 91%
    20:00 +11°C° 0 mm 1 mps 679 mmHg 93%
    21:00 +10°C° 0 mm 1 mps 679 mmHg 95%
    22:00 +9°C° 0 mm 1 mps 679 mmHg 97%
    23:00 +8°C° 0 mm 1 mps 679 mmHg 97%

    Tomorrow, 26 May, Friday

    Time Temperature Precipitation Wind Pressure Humidity
    00:00 +7°C° 0 mm 1 mps 679 mmHg 97%
    01:00 +7°C° 0 mm 1 mps 678 mmHg 97%
    02:00 +6°C° 0 mm 1 mps 678 mmHg 96%
    03:00 +6°C° 0 mm 1 mps 678 mmHg 96%
    04:00 +6°C° 0 mm 1 mps 678 mmHg 96%
    05:00 +8°C° 0 mm 1 mps 678 mmHg 91%
    06:00 +10°C° 0 mm 1 mps 679 mmHg 85%
    07:00 +12°C° 0 mm 1 mps 679 mmHg 80%
    08:00 +14°C° 0 mm 1 mps 680 mmHg 74%
    09:00 +15°C° 0 mm 1 mps 680 mmHg 67%
    10:00 +17°C° 0 mm 2 mps 680 mmHg 61%
    11:00 +17°C° 0 mm 2 mps 680 mmHg 60%
    12:00 +18°C° 0 mm 2 mps 680 mmHg 59%
    13:00 +19°C° 0 mm 2 mps 680 mmHg 57%
    14:00 +19°C° 0 mm 2 mps 680 mmHg 59%
    15:00 +19°C° 0 mm 2 mps 679 mmHg 61%
    16:00 +19°C° 0 mm 2 mps 679 mmHg 63%
    17:00 +17°C° 0 mm 2 mps 679 mmHg 71%
    18:00 +16°C° 0 mm 2 mps 679 mmHg 79%
    19:00 +15°C° 0 mm 1 mps 679 mmHg 87%
    20:00 +13°C° 0 mm 1 mps 679 mmHg 90%
    21:00 +11°C° 0 mm 1 mps 678 mmHg 93%
    22:00 +9°C° 0 mm 1 mps 678 mmHg 96%
    23:00 +8°C° 0 mm 1 mps 678 mmHg 95%

    Day after tomorrow, 27 May, Saturday

    Time Temperature Precipitation Wind Pressure Humidity
    00:00 +8°C° 0 mm 1 mps 678 mmHg 94%
    01:00 +8°C° 0 mm 1 mps 678 mmHg 93%
    02:00 +7°C° 0 mm 1 mps 678 mmHg 92%
    03:00 +7°C° 0 mm 1 mps 678 mmHg 91%
    04:00 +7°C° 0 mm 1 mps 678 mmHg 89%
    05:00 +10°C° 0 mm 1 mps 679 mmHg 83%
    06:00 +12°C° 0 mm 1 mps 680 mmHg 77%
    07:00 +15°C° 0 mm 1 mps 680 mmHg 71%
    08:00 +18°C° 0 mm 1 mps 681 mmHg 64%
    09:00 +19°C° 0 mm 1 mps 681 mmHg 58%
    10:00 +21°C° 0 mm 1 mps 682 mmHg 51%
    11:00 +21°C° 0 mm 2 mps 682 mmHg 51%
    12:00 +23°C° 0 mm 2 mps 682 mmHg 51%
    13:00 +23°C° 0 mm 2 mps 682 mmHg 50%
    14:00 +23°C° 0 mm 2 mps 682 mmHg 54%
    15:00 +23°C° 0 mm 2 mps 681 mmHg 57%
    16:00 +23°C° 0 mm 2 mps 681 mmHg 60%
    17:00 +20°C° 0.1 mm 2 mps 681 mmHg 70%
    18:00 +19°C° 0.1 mm 1 mps 681 mmHg 79%
    19:00 +18°C° 0.1 mm 1 mps 681 mmHg 88%
    20:00 +15°C° 0 mm 1 mps 681 mmHg 90%
    21:00 +13°C° 0 mm 1 mps 681 mmHg 92%
    22:00 +11°C° 0 mm 1 mps 681 mmHg 94%
    23:00 +11°C° 0 mm 1 mps 681 mmHg 94%

    28 May, Sunday

    Time Temperature Precipitation Wind Pressure Humidity
    00:00 +10°C° 0 mm 2 mps 681 mmHg 94%
    01:00 +10°C° 0 mm 2 mps 681 mmHg 93%
    02:00 +10°C° 0 mm 2 mps 681 mmHg 93%
    03:00 +10°C° 0 mm 2 mps 681 mmHg 93%
    04:00 +10°C° 0 mm 2 mps 681 mmHg 93%
    05:00 +13°C° 0 mm 1 mps 681 mmHg 89%
    06:00 +15°C° 0 mm 1 mps 682 mmHg 85%
    07:00 +16°C° 0 mm 1 mps 683 mmHg 81%
    08:00 +20°C° 0 mm 1 mps 683 mmHg 71%
    09:00 +22°C° 0 mm 1 mps 683 mmHg 61%
    10:00 +22°C° 0 mm 0 mps 684 mmHg 51%
    11:00 +25°C° 0 mm 1 mps 683 mmHg 49%
    12:00 +25°C° 0 mm 1 mps 683 mmHg 47%
    13:00 +26°C° 0 mm 1 mps 683 mmHg 46%
    14:00 +25°C° 0.1 mm 1 mps 683 mmHg 49%
    15:00 +25°C° 0.1 mm 1 mps 683 mmHg 53%
    16:00 +25°C° 0.1 mm 1 mps 682 mmHg 56%
    17:00 +23°C° 0.2 mm 1 mps 682 mmHg 66%
    18:00 +21°C° 0.2 mm 1 mps 682 mmHg 76%
    19:00 +20°C° 0.2 mm 1 mps 681 mmHg 86%
    20:00 +18°C° 0 mm 1 mps 681 mmHg 88%
    21:00 +15°C° 0 mm 1 mps 681 mmHg 90%
    22:00 +13°C° 0 mm 1 mps 681 mmHg 92%
    23:00 +13°C° 0 mm 1 mps 681 mmHg 92%

    29 May, Monday

    Time Temperature Precipitation Wind Pressure Humidity
    00:00 +13°C° 0 mm 2 mps 680 mmHg 91%
    01:00 +13°C° 0 mm 2 mps 680 mmHg 91%
    02:00 +13°C° 0 mm 2 mps 680 mmHg 91%
    03:00 +12°C° 0 mm 2 mps 680 mmHg 91%
    04:00 +12°C° 0 mm 2 mps 680 mmHg 90%
    05:00 +14°C° 0 mm 1 mps 680 mmHg 86%
    06:00 +16°C° 0 mm 1 mps 680 mmHg 81%
    07:00 +19°C° 0 mm 1 mps 681 mmHg 76%
    08:00 +21°C° 0 mm 1 mps 681 mmHg 68%
    09:00 +23°C° 0 mm 1 mps 681 mmHg 59%
    10:00 +23°C° 0 mm 0 mps 681 mmHg 51%
    11:00 +26°C° 0 mm 1 mps 681 mmHg 50%
    12:00 +26°C° 0 mm 1 mps 681 mmHg 48%
    13:00 +27°C° 0 mm 1 mps 680 mmHg 47%
    14:00 +26°C° 0.1 mm 1 mps 680 mmHg 51%
    15:00 +26°C° 0.1 mm 1 mps 680 mmHg 54%
    16:00 +26°C° 0.1 mm 2 mps 679 mmHg 58%
    17:00 +24°C° 0.3 mm 1 mps 679 mmHg 67%
    18:00 +22°C° 0.3 mm 1 mps 678 mmHg 76%
    19:00 +21°C° 0.3 mm 1 mps 678 mmHg 85%
    20:00 +19°C° 0.1 mm 1 mps 678 mmHg 87%
    21:00 +16°C° 0.1 mm 1 mps 678 mmHg 90%
    22:00 +14°C° 0.1 mm 1 mps 677 mmHg 92%
    23:00 +14°C° 0.1 mm 1 mps 677 mmHg 92%

    30 May, Tuesday

    Time Temperature Precipitation Wind Pressure Humidity
    00:00 +14°C° 0.1 mm 1 mps 677 mmHg 91%
    01:00 +14°C° 0.1 mm 2 mps 677 mmHg 91%
    02:00 +13°C° 0 mm 2 mps 676 mmHg 90%
    03:00 +13°C° 0 mm 2 mps 676 mmHg 90%
    04:00 +13°C° 0 mm 2 mps 676 mmHg 89%
    05:00 +15°C° 0 mm 1 mps 677 mmHg 85%
    06:00 +18°C° 0 mm 1 mps 677 mmHg 81%
    07:00 +20°C° 0 mm 1 mps 678 mmHg 76%
    08:00 +22°C° 0 mm 1 mps 678 mmHg 69%
    09:00 +24°C° 0 mm 1 mps 678 mmHg 62%
    10:00 +25°C° 0 mm 1 mps 678 mmHg 56%
    11:00 +26°C° 0.2 mm 1 mps 678 mmHg 57%
    12:00 +26°C° 0.2 mm 1 mps 678 mmHg 59%
    13:00 +26°C° 0.2 mm 2 mps 678 mmHg 60%
    14:00 +26°C° 1.3 mm 2 mps 678 mmHg 65%
    15:00 +25°C° 1.3 mm 1 mps 678 mmHg 69%
    16:00 +24°C° 1.3 mm 1 mps 677 mmHg 74%
    17:00 +23°C° 1.2 mm 1 mps 677 mmHg 80%
    18:00 +22°C° 1.2 mm 1 mps 677 mmHg 85%
    19:00 +20°C° 1.2 mm 1 mps 677 mmHg 91%
    20:00 +19°C° 0.6 mm 1 mps 677 mmHg 93%
    21:00 +16°C° 0.6 mm 1 mps 676 mmHg 94%
    22:00 +14°C° 0.6 mm 1 mps 676 mmHg 96%
    23:00 +14°C° 0.7 mm 1 mps 676 mmHg 96%
    Show more